Regional Weather Roundup
Issued by NWS Northern Indiana

Home | Current Version | Previous Version | Graphics & Text | Print | Product List | Glossary On
Versions: 1 2 3 4 5 6 7 8 9 10 11 12 13 14 15 16 17 18 19 20 21 22 23 24 25 26 27 28 29 30 31 32 33 34 35 36 37 38 39 40 41 42 43 44 45 46 47 48 49 50
000
ASUS43 KIWX 131700
RWRIWX

KIWX WEATHER ROUNDUP
NATIONAL WEATHER SERVICE NORTHERN INDIANA
1200 PM EST WED DEC 13 2017

NOTE: "FAIR" INDICATES FEW OR NO CLOUDS BELOW 12,000 FEET WITH NO
SIGNIFICANT WEATHER AND/OR OBSTRUCTIONS TO VISIBILITY.

* THESE STATIONS ARE NOT UNDER NWS QUALITY CONTROL. THEY ALSO MAY NOT
  REPORT WEATHER SUCH AS PRECIPITATION OR FOG.

INZ001>027-131800-
NORTHERN INDIANA

CITY           SKY/WX    TMP DP  RH WIND       PRES   REMARKS
GARY*          CLOUDY    34  10  37 S14G29    29.44F WCI  24
MICHIGAN CITY* CLOUDY    30  12  47 S13G23    29.41F WCI  20
LAPORTE*       CLOUDY    28  13  55 S13       29.45F WCI  17
KNOX*          CLOUDY    30  14  51 S17       29.47F WCI  18
SOUTH BEND     CLOUDY    26  13  57 S22G28    29.47F WCI  12
GOSHEN         CLOUDY    27  12  53 SE17G26   29.52F WCI  14
MONTICELLO*    CLOUDY    32  10  40 S17       29.48F WCI  21
ROCHESTER*     CLOUDY    32  14  47 S17       29.52F WCI  21
WARSAW*        CLOUDY    27  12  54 S10G17    29.54F WCI  17
AUBURN*        CLOUDY    27  12  54 SE7       29.61F WCI  19
FORT WAYNE     FLURRIES  26  14  60 S18       29.59F WCI  13
PERU/GRISSOM   CLOUDY    30  10  42 S20G25    29.52F WCI  18

$$
INZ028>050-131800-
CENTRAL INDIANA

CITY           SKY/WX    TMP DP  RH WIND       PRES   REMARKS
LAFAYETTE      CLOUDY    34  16  47 S17G29    29.49F WCI  23
KOKOMO*        CLOUDY    30  13  49 S20G29    29.55F WCI  17
MUNCIE*        CLOUDY    30   8  39 S17G24    29.61F WCI  18
INDIANAPOLIS   CLOUDY    33  10  38 S18G31    29.60F WCI  22

$$
MIZ043>046-050>051-056>058-064>065-071>073-077>080-131800-
SOUTHWEST LOWER MICHIGAN

CITY           SKY/WX    TMP DP  RH WIND       PRES   REMARKS
BATTLE CREEK   CLOUDY    21  13  71 SE15G21   29.54F WCI   8
BENTON HARBOR  CLOUDY    26  12  55 SE14G31   29.42F WCI  14
COLDWATER*     LGT SNOW  22  13  69 SE13G18   29.56F WCI  10
HILLSDALE*     CLOUDY    21  12  68 SE12      29.58F WCI   9
HOLLAND        CLOUDY    22  13  68 SE21      29.47F WCI   6
GRAND RAPIDS   FLURRIES  20  16  84 SE15      29.53F WCI   6
KALAMAZOO      CLOUDY    23  13  65 SE8G20    29.52F WCI  14
STURGIS*       CLOUDY    23  12  62 S15G23    29.53F WCI  10
THREE RIVERS*  CLOUDY    24  13  60 S14       29.52F WCI  12

$$
OHZ001>008-015>018-024>025-131800-
NORTHWEST OHIO

CITY           SKY/WX    TMP DP  RH WIND       PRES   REMARKS
DEFIANCE       CLOUDY    23  11  60 S12       29.66F WCI  12
FINDLAY        LGT SNOW  22  13  68 S15       29.70F WCI   9
TOLEDO EXPRESS LGT SNOW  21  13  71 S8        29.69F WCI  11
TOLEDO METCALF LGT SNOW  21  14  74 S13       29.71F WCI   9
LIMA           CLOUDY    22  12  65 S16       29.68F WCI   8

$$
AND FOR LAKE MICHIGAN COASTAL AND OPEN LAKE BUOY OBSERVATIONS

STATION/POSITION TEMP    WIND        PRES    VSBY  WAVE
                 AIR SEA DIR/SP/G                  HT/PER
                 (F)     (DEG/KT/KT) (MB)    (MI)  (FT/S)
CALUMET HARBOR    32     170/ 17/ 32  995.7F
MICHIGAN CITY     29     160/ 19/ 24   N/A
BURNS HARBOR      31     170/ 15/ 27  996.6F
SAINT JOSEPH      26     160/  7/ 12 1000.7

$$
&&




USA.gov is the U.S. government's official web portal to all federal, state and local government web resources and services.